Flag for Germany Weather past 2 weeks in Lüneburg, Lower Saxony, Germany

Now
54 °F

Partly sunny.


Feels Like: 52 °F
Forecast: 48 / 53 °F
Wind: 7 mph from South

Location: Fassberg

Current Time: Oct 24, 2014 at 12:32:47 PM

Latest Report: Oct 24, 2014 at 12:00 PM


Visibility: N/A

Pressure: 30.18 "Hg

Humidity: 82%

Dew point: 48 °F

Location of LüneburgLocation

Historic Weather in Lüneburg — Graph

°F

Lüneburg temperature yesterday

Maximum temperature yesterday: 57 °F (at 2:20 PM)
Minimum temperature yesterday: 48 °F (at 6:20 AM)
Average temperature yesterday: 52 °F

Past Weeks' High & Low Weather Summary

 TemperatureHumidityPressure
High73 °F (Oct 19, 3:20 PM)100% (Oct 11, 3:20 AM)30.18 "Hg (Oct 11, 3:20 AM)
Low45 °F (Oct 14, 7:20 AM)49% (Oct 14, 3:20 PM)29.42 "Hg (Oct 21, 6:20 PM)
Average55 °F86%29.86 "Hg
* Reported Oct 9 11:20 AM — Oct 24 11:20 AM, Lüneburg, Weather by CustomWeather, © 2014

Note: Actual official high and low records may vary slightly from our data, if they occured in-between our weather recording intervals... More about our weather records

Advertising

Lüneburg weather history for previous 24 hours

 ConditionsComfort  
Time TempWeatherWind HumidityBarometerVisibility
11:20 AM
Oct 24
52 °FPartly sunny.7 mph82%30.18 "HgN/A
10:20 AM52 °FPartly sunny.7 mph82%30.18 "HgN/A
9:20 AM50 °FPartly sunny.7 mph88%30.18 "HgN/A
8:20 AM50 °FPassing clouds.6 mph88%30.18 "HgN/A
7:20 AM48 °FPassing clouds.6 mph87%30.15 "HgN/A
6:20 AM50 °FPassing clouds.7 mph88%30.15 "HgN/A
5:20 AM50 °FPartly cloudy.7 mph88%30.15 "HgN/A
4:20 AM50 °FPassing clouds.7 mph88%30.18 "HgN/A
3:20 AM50 °FPassing clouds.6 mph88%30.18 "HgN/A
2:20 AM52 °FPartly cloudy.7 mph82%30.18 "HgN/A
1:20 AM52 °FPassing clouds.7 mph82%30.18 "HgN/A
12:20 AM52 °FPassing clouds.6 mph82%30.18 "HgN/A
11:20 PM
Oct 23
52 °FPassing clouds.6 mph82%30.18 "HgN/A
10:20 PM52 °FPassing clouds.5 mph82%30.18 "HgN/A
9:20 PM52 °FPassing clouds.5 mph88%30.18 "HgN/A
8:20 PM52 °FPassing clouds.7 mph82%30.18 "HgN/A
7:20 PM52 °FPassing clouds.6 mph82%30.18 "HgN/A
6:20 PM54 °FPartly sunny.6 mph77%30.18 "HgN/A
5:20 PM55 °FPartly sunny.6 mph67%30.18 "HgN/A
4:20 PM55 °FPartly sunny.7 mph67%30.18 "HgN/A
3:20 PM55 °FBroken clouds.7 mph67%30.18 "HgN/A
2:20 PM57 °FBroken clouds.8 mph59%30.18 "HgN/A
1:20 PM55 °FBroken clouds.9 mph63%30.18 "HgN/A
12:20 PM55 °FBroken clouds.8 mph63%30.18 "HgN/A
Weather by CustomWeather, © 2014

See weather overviewHow to use our weather pages